When you browse on this site, cookies collect data to enhance your experience and personalize the content and advertising you see.
Visit our Privacy Policy to learn more. By continuing to use the site, you agree to this use of cookies and data.
EN

Hourly Weather Esmanovo

Today, 4 August, Tuesday

Time Temperature Precipitation Wind Pressure Humidity
00:00 +14°C° 0 mm 3 mps 743 mmHg 90%
01:00 +13°C° 0 mm 3 mps 743 mmHg 90%
02:00 +13°C° 0 mm 3 mps 743 mmHg 92%
03:00 +13°C° 0 mm 3 mps 743 mmHg 92%
04:00 +13°C° 0 mm 3 mps 743 mmHg 91%
05:00 +13°C° 0 mm 3 mps 743 mmHg 91%
06:00 +14°C° 0 mm 3 mps 743 mmHg 87%
07:00 +17°C° 0 mm 4 mps 743 mmHg 83%
08:00 +18°C° 0 mm 4 mps 744 mmHg 79%
09:00 +20°C° 0 mm 4 mps 744 mmHg 76%
10:00 +21°C° 0 mm 5 mps 744 mmHg 72%
11:00 +22°C° 0 mm 5 mps 744 mmHg 69%
12:00 +23°C° 0 mm 5 mps 744 mmHg 66%
13:00 +25°C° 0 mm 5 mps 743 mmHg 64%
14:00 +25°C° 0 mm 5 mps 743 mmHg 61%
15:00 +25°C° 0 mm 5 mps 743 mmHg 65%
16:00 +25°C° 0 mm 4 mps 743 mmHg 69%
17:00 +25°C° 0 mm 4 mps 743 mmHg 72%
18:00 +22°C° 0 mm 4 mps 743 mmHg 75%
19:00 +20°C° 0 mm 4 mps 743 mmHg 78%
20:00 +19°C° 0 mm 4 mps 743 mmHg 81%
21:00 +18°C° 0 mm 4 mps 743 mmHg 83%
22:00 +18°C° 0 mm 4 mps 743 mmHg 86%
23:00 +17°C° 0 mm 4 mps 743 mmHg 88%

Tomorrow, 5 August, Wednesday

Time Temperature Precipitation Wind Pressure Humidity
00:00 +17°C° 0 mm 4 mps 743 mmHg 88%
01:00 +15°C° 0 mm 4 mps 743 mmHg 88%
02:00 +15°C° 0 mm 4 mps 743 mmHg 87%
03:00 +15°C° 0 mm 4 mps 743 mmHg 87%
04:00 +15°C° 0 mm 4 mps 743 mmHg 87%
05:00 +14°C° 0 mm 4 mps 743 mmHg 87%
06:00 +17°C° 0 mm 4 mps 744 mmHg 84%
07:00 +18°C° 0 mm 4 mps 744 mmHg 81%
08:00 +20°C° 0 mm 4 mps 744 mmHg 78%
09:00 +21°C° 0 mm 4 mps 744 mmHg 75%
10:00 +23°C° 0 mm 4 mps 744 mmHg 71%
11:00 +25°C° 0 mm 4 mps 745 mmHg 68%
12:00 +26°C° 0 mm 4 mps 745 mmHg 65%
13:00 +27°C° 0 mm 4 mps 745 mmHg 62%
14:00 +27°C° 0 mm 4 mps 745 mmHg 60%
15:00 +27°C° 0 mm 3 mps 745 mmHg 63%
16:00 +27°C° 0 mm 2 mps 745 mmHg 67%
17:00 +27°C° 0 mm 2 mps 745 mmHg 71%
18:00 +25°C° 0 mm 2 mps 745 mmHg 73%
19:00 +24°C° 0 mm 2 mps 745 mmHg 75%
20:00 +21°C° 0 mm 2 mps 745 mmHg 77%
21:00 +21°C° 0 mm 2 mps 746 mmHg 79%
22:00 +20°C° 0 mm 2 mps 746 mmHg 80%
23:00 +20°C° 0 mm 2 mps 746 mmHg 81%

Day after tomorrow, 6 August, Thursday

Time Temperature Precipitation Wind Pressure Humidity
00:00 +19°C° 0 mm 2 mps 746 mmHg 82%
01:00 +19°C° 0 mm 2 mps 746 mmHg 82%
02:00 +18°C° 0 mm 2 mps 746 mmHg 83%
03:00 +18°C° 0 mm 2 mps 746 mmHg 83%
04:00 +18°C° 0 mm 2 mps 747 mmHg 83%
05:00 +18°C° 0 mm 2 mps 747 mmHg 84%
06:00 +19°C° 0 mm 2 mps 747 mmHg 82%
07:00 +21°C° 0 mm 1 mps 747 mmHg 81%
08:00 +22°C° 0 mm 1 mps 747 mmHg 80%
09:00 +23°C° 0.1 mm 1 mps 748 mmHg 76%
10:00 +25°C° 0.1 mm 1 mps 748 mmHg 73%
11:00 +26°C° 0.1 mm 1 mps 748 mmHg 69%
12:00 +26°C° 0.6 mm 2 mps 748 mmHg 70%
13:00 +27°C° 0.6 mm 2 mps 748 mmHg 70%
14:00 +27°C° 0.6 mm 3 mps 748 mmHg 70%
15:00 +26°C° 0.7 mm 3 mps 748 mmHg 74%
16:00 +26°C° 0.7 mm 3 mps 748 mmHg 77%
17:00 +25°C° 0.7 mm 4 mps 748 mmHg 80%
18:00 +24°C° 0.2 mm 3 mps 748 mmHg 83%
19:00 +21°C° 0.2 mm 3 mps 748 mmHg 85%
20:00 +20°C° 0.2 mm 3 mps 748 mmHg 87%
21:00 +19°C° 0 mm 3 mps 748 mmHg 86%
22:00 +18°C° 0 mm 3 mps 749 mmHg 84%
23:00 +17°C° 0 mm 3 mps 749 mmHg 82%

7 August, Friday

Time Temperature Precipitation Wind Pressure Humidity
00:00 +16°C° 0 mm 3 mps 749 mmHg 83%
01:00 +14°C° 0 mm 3 mps 749 mmHg 84%
02:00 +14°C° 0 mm 3 mps 749 mmHg 85%
03:00 +13°C° 0 mm 3 mps 749 mmHg 86%
04:00 +13°C° 0 mm 3 mps 750 mmHg 87%
05:00 +13°C° 0 mm 3 mps 750 mmHg 88%
06:00 +14°C° 0 mm 3 mps 750 mmHg 85%
07:00 +17°C° 0 mm 3 mps 750 mmHg 82%
08:00 +19°C° 0 mm 3 mps 750 mmHg 79%
09:00 +20°C° 0 mm 3 mps 750 mmHg 75%
10:00 +21°C° 0 mm 3 mps 750 mmHg 71%
11:00 +22°C° 0 mm 3 mps 750 mmHg 66%
12:00 +24°C° 0 mm 3 mps 750 mmHg 65%
13:00 +24°C° 0 mm 3 mps 750 mmHg 64%
14:00 +25°C° 0 mm 3 mps 750 mmHg 63%
15:00 +24°C° 0 mm 3 mps 750 mmHg 66%
16:00 +24°C° 0 mm 3 mps 749 mmHg 69%
17:00 +24°C° 0 mm 3 mps 749 mmHg 72%
18:00 +21°C° 0 mm 3 mps 749 mmHg 77%
19:00 +20°C° 0 mm 3 mps 749 mmHg 82%
20:00 +18°C° 0 mm 2 mps 749 mmHg 87%
21:00 +17°C° 0 mm 2 mps 749 mmHg 89%
22:00 +17°C° 0 mm 2 mps 749 mmHg 91%
23:00 +16°C° 0 mm 2 mps 749 mmHg 92%

8 August, Saturday

Time Temperature Precipitation Wind Pressure Humidity
00:00 +16°C° 0 mm 2 mps 749 mmHg 92%
01:00 +15°C° 0 mm 2 mps 749 mmHg 93%
02:00 +15°C° 0 mm 2 mps 749 mmHg 93%
03:00 +15°C° 0 mm 2 mps 749 mmHg 93%
04:00 +14°C° 0 mm 2 mps 748 mmHg 93%
05:00 +14°C° 0 mm 2 mps 748 mmHg 93%
06:00 +16°C° 0 mm 2 mps 748 mmHg 88%
07:00 +18°C° 0 mm 2 mps 748 mmHg 82%
08:00 +19°C° 0 mm 2 mps 748 mmHg 77%
09:00 +20°C° 0 mm 2 mps 748 mmHg 73%
10:00 +21°C° 0 mm 2 mps 748 mmHg 68%
11:00 +24°C° 0 mm 2 mps 748 mmHg 64%
12:00 +24°C° 0.1 mm 2 mps 748 mmHg 63%
13:00 +24°C° 0.1 mm 2 mps 747 mmHg 62%
14:00 +24°C° 0.1 mm 2 mps 747 mmHg 61%
15:00 +24°C° 0 mm 2 mps 746 mmHg 64%
16:00 +24°C° 0 mm 2 mps 746 mmHg 66%
17:00 +24°C° 0 mm 2 mps 746 mmHg 68%
18:00 +21°C° 0 mm 2 mps 746 mmHg 73%
19:00 +19°C° 0 mm 2 mps 745 mmHg 78%
20:00 +17°C° 0 mm 2 mps 745 mmHg 83%
21:00 +17°C° 0 mm 2 mps 745 mmHg 85%
22:00 +16°C° 0 mm 2 mps 745 mmHg 86%
23:00 +16°C° 0 mm 2 mps 745 mmHg 87%

9 August, Sunday

Time Temperature Precipitation Wind Pressure Humidity
00:00 +15°C° 0 mm 2 mps 745 mmHg 88%
01:00 +15°C° 0 mm 2 mps 745 mmHg 88%
02:00 +15°C° 0 mm 1 mps 745 mmHg 89%
03:00 +14°C° 0 mm 1 mps 744 mmHg 88%
04:00 +14°C° 0 mm 1 mps 744 mmHg 88%
05:00 +14°C° 0 mm 2 mps 744 mmHg 88%
06:00 +15°C° 0 mm 2 mps 744 mmHg 84%
07:00 +17°C° 0 mm 2 mps 744 mmHg 80%
08:00 +19°C° 0 mm 2 mps 744 mmHg 76%
09:00 +20°C° 0.1 mm 2 mps 744 mmHg 72%
10:00 +21°C° 0.1 mm 2 mps 744 mmHg 67%
11:00 +23°C° 0.1 mm 2 mps 744 mmHg 63%
12:00 +23°C° 0.1 mm 2 mps 743 mmHg 61%
13:00 +24°C° 0.1 mm 1 mps 743 mmHg 59%
14:00 +24°C° 0.1 mm 1 mps 743 mmHg 57%
15:00 +24°C° 0.5 mm 1 mps 742 mmHg 62%
16:00 +23°C° 0.5 mm 1 mps 742 mmHg 66%
17:00 +23°C° 0.5 mm 1 mps 742 mmHg 70%
18:00 +21°C° 0.2 mm 1 mps 742 mmHg 75%
19:00 +20°C° 0.2 mm 1 mps 742 mmHg 79%
20:00 +18°C° 0.2 mm 1 mps 742 mmHg 83%
21:00 +16°C° 0 mm 1 mps 742 mmHg 84%
22:00 +16°C° 0 mm 1 mps 742 mmHg 85%
23:00 +15°C° 0 mm 1 mps 742 mmHg 86%
Show more